www.pogodaiklimat.ru

Погода и климат >> Архив погоды >> Австралия >> Западная Австралия >> Телфер


ПОГОДА в Телфере

  • Прогноз погоды в Телфере
  • Монитор погоды в Телфере

АРХИВ ПОГОДЫ в Телфере

Время (UTC), дата Ветер
(напр.,м/с)
 
Видим.   Явления Облачность Т
(С)
Тd
(С)
f
(%)
Тe
(С)
Тes
(С)
Комфортность P
(гПа)
Po
(гПа)
Тmin
(С)
Tmax
(С)
R
(мм)
R24
(мм)
S
(см)
10 8.09 ЮВ 4 н/о 4/0
[]
+31.6 +1.8 15 +29 +29 жарко 1014.9 981.6
12 8.09 Ю 3 н/о н/о +28.9 +3.0 19 +27 +27 жарко 1015.8 982.5
13 8.09 Ю 3 н/о 1/0
[]
+27.7 +2.7 20 +26 +26 жарко 1015.9 982.6 +36.5
15 8.09 штиль 0 н/о н/о +27.7 +2.7 20 +26 +26 жарко 1016.1 982.8
16 8.09 штиль 0 н/о н/о +24.2 +2.4 24 +23 +23 комфорт 1015.8 982.5
18 8.09 Ю 3 н/о н/о +23.4 +2.3 25 +23 +23 комфорт 1015.8 982.5
19 8.09 ЮВ 2 н/о н/о +21.4 +2.2 28 +21 +21 комфорт 1015.6 982.3
21 8.09 ЮВ 4 н/о н/о +21.0 +1.8 28 +21 +21 комфорт 1016.5 983.2
22 8.09 ЮВ 4 н/о н/о +20.9 +1.7 28 +21 +21 комфорт 1017.0 983.7
00 9.09 В 6 н/о н/о +28.6 +2.0 18 +26 +26 жарко 1018.3 984.9
01 9.09 В 8 н/о н/о +29.6 +1.1 16 +27 +27 жарко 1018.6 985.2 +18.9
03 9.09 СВ 9 н/о н/о +33.9 +1.6 13 +31 +31 жарко 1017.5 984.1
04 9.09 СВ 7 н/о н/о +34.9 +1.3 12 +32 +32 жарко 1016.4 983.1
06 9.09 В 6 н/о н/о +36.9 +2.8 12 +34 +34 очень
жарко
1014.8 981.5
07 9.09 СВ 5 н/о 3/0
[]
+35.9 +2.1 12 +33 +37 жарко 1014.4 981.1
09 9.09 СВ 4 н/о н/о +35.2 +2.6 13 +32 +32 жарко 1014.6 981.3
10 9.09 СВ 3 н/о 3/0
[]
+33.0 +2.9 15 +30 +30 жарко 1015.1 981.8
12 9.09 В 3 н/о н/о +26.9 +2.7 21 +25 +25 комфорт 1016.2 982.9
13 9.09 В 5 н/о н/о +27.7 +2.7 20 +26 +26 жарко 1016.7 983.4 +37.4
15 9.09 В 4 н/о н/о +24.5 +0.1 20 +23 +23 комфорт 1017.3 983.9
16 9.09 В 4 н/о н/о +23.8 -0.5 20 +23 +23 комфорт 1016.9 983.6
18 9.09 В 3 н/о н/о +22.3 -1.7 20 +21 +21 комфорт 1016.5 983.2
19 9.09 С 2 н/о 3/0
[]
+23.0 -1.8 19 +22 +22 комфорт 1016.8 983.5
21 9.09 штиль 0 н/о н/о +22.0 -2.0 20 +21 +21 комфорт 1018.0 984.6
22 9.09 ЮЗ 4 н/о н/о +22.0 -1.3 21 +21 +21 комфорт 1018.7 985.3
00 10.09 СВ 5 н/о н/о +27.4 -5.6 11 +24 +24 комфорт 1020.4 986.9
01 10.09 СВ 7 н/о н/о +29.3 -8.3 8 +26 +26 жарко 1020.6 987.1 +19.5
03 10.09 В 8 н/о н/о +32.5 -9.7 6 +28 +28 жарко 1020.1 986.7
04 10.09 В 8 н/о н/о +34.9 -8.0 6 +30 +30 жарко 1019.0 985.6
06 10.09 В 8 н/о н/о +34.8 -6.0 7 +31 +31 жарко 1017.4 984.0
07 10.09 В 7 н/о н/о +34.4 -6.3 7 +30 +30 жарко 1016.8 983.5
09 10.09 В 7 н/о н/о +33.1 -5.5 8 +29 +29 жарко 1017.4 984.0
10 10.09 В 4 н/о н/о +30.4 -6.0 9 +27 +27 жарко 1018.0 984.6
12 10.09 В 3 н/о н/о +25.1 -5.2 13 +23 +23 комфорт 1019.6 986.2
13 10.09 ЮВ 3 н/о н/о +24.6 -5.6 13 +22 +22 комфорт 1020.1 986.7 +35.6
15 10.09 ЮВ 4 н/о н/о +23.5 -5.5 14 +22 +22 комфорт 1020.5 987.0
16 10.09 ЮВ 4 н/о н/о +22.2 -5.6 15 +21 +21 комфорт 1020.4 986.9
18 10.09 ЮВ 3 н/о н/о +19.5 -5.4 18 +20 +20 1020.0 986.6
19 10.09 ЮВ 3 н/о н/о +18.1 -5.9 19 +18 +18 1020.1 986.7
21 10.09 ЮВ 3 н/о н/о +16.5 -5.9 21 +16 +16 1021.2 987.7
22 10.09 ЮВ 3 н/о н/о +14.8 -6.1 23 +14 +14 1021.6 988.1
00 11.09 СВ 5 н/о н/о +25.6 -11.1 8 +22 +22 комфорт 1022.8 989.3
01 11.09 СВ 6 н/о н/о +29.3 -11.9 6 +25 +25 комфорт 1022.6 989.1 +14.7
03 11.09 СВ 8 н/о н/о +32.2 -12.2 5 +28 +28 жарко 1021.5 988.0
04 11.09 В 7 н/о н/о +33.0 -11.6 5 +28 +28 жарко 1020.7 987.2
06 11.09 В 4 н/о н/о +33.0 -14.3 4 +28 +28 жарко 1018.7 985.3
07 11.09 В 4 н/о н/о +33.6 -13.9 4 +29 +29 жарко 1018.3 984.9
09 11.09 В 5 н/о н/о +32.1 -14.9 4 +27 +27 жарко 1018.6 985.2
10 11.09 В 4 н/о н/о +27.5 -15.4 5 +24 +24 комфорт 1019.0 985.6
12 11.09 ЮВ 3 н/о н/о +23.1 -16.4 6 +20 +20 1020.7 987.2
13 11.09 В 3 н/о н/о +22.7 -16.7 6 +20 +20 1021.1 987.6 +34.5
15 11.09 В 3 н/о н/о +20.9 -14.5 8 +20 +20 1020.6 987.1
16 11.09 ЮВ 3 н/о н/о +20.1 -15.1 8 +20 +20 1020.5 987.0
18 11.09 ЮВ 2 н/о н/о +17.8 -15.5 9 +18 +18 1019.8 986.4
19 11.09 ЮВ 2 н/о н/о +15.3 -15.0 11 +15 +15 1019.9 986.5
21 11.09 ЮВ 3 н/о н/о +13.0 -14.7 13 +12 +12 1021.1 987.6
22 11.09 ЮВ 3 н/о н/о +13.4 -14.4 13 +13 +13 1021.5 988.0
00 12.09 В 4 н/о н/о +23.5 -14.2 7 +21 +21 комфорт 1023.1 989.6
01 12.09 В 5 н/о н/о +27.0 -13.6 6 +23 +23 комфорт 1023.2 989.7 +12.4
03 12.09 В 6 н/о н/о +31.9 -15.1 4 +27 +27 жарко 1021.9 988.4
04 12.09 СВ 8 н/о н/о +31.5 -15.4 4 +27 +27 жарко 1021.0 987.5
06 12.09 В 7 н/о н/о +33.1 -17.7 3 +28 +28 жарко 1018.9 985.5
07 12.09 В 7 н/о н/о +32.4 -14.7 4 +28 +28 жарко 1018.5 985.1
09 12.09 В 5 н/о н/о +31.3 -15.5 4 +27 +27 жарко 1018.8 985.4
10 12.09 В 4 н/о н/о +26.7 -16.0 5 +23 +23 комфорт 1019.2 985.8
12 12.09 ЮВ 4 н/о н/о +23.2 -16.3 6 +20 +20 1020.4 986.9
13 12.09 ЮВ 3 н/о н/о +22.2 -17.0 6 +20 +20 1020.5 987.0 +34.0
15 12.09 ЮВ 4 н/о н/о +17.9 -16.8 8 +18 +18 1019.9 986.5
16 12.09 В 2 н/о н/о +18.1 -18.2 7 +19 +19 1019.8 986.4
18 12.09 ЮВ 5 н/о н/о +17.9 -15.4 9 +17 +17 1019.2 985.8
19 12.09 ЮВ 4 н/о н/о +16.2 -18.1 8 +16 +16 1019.0 985.6
21 12.09 ЮВ 5 н/о н/о +16.3 -16.6 9 +16 +16 1019.6 986.2
22 12.09 ЮВ 4 н/о н/о +12.4 -17.2 11 +11 +11 1020.3 986.8
00 13.09 ЮВ 4 н/о н/о +23.2 -14.5 7 +20 +20 1021.3 987.8
01 13.09 В 6 н/о н/о +27.2 -13.4 6 +23 +23 комфорт 1021.3 987.8 +12.2
03 13.09 В 7 н/о н/о +31.9 -15.1 4 +27 +27 жарко 1020.3 986.8
04 13.09 В 8 н/о н/о +32.9 -14.4 4 +28 +28 жарко 1019.2 985.8
06 13.09 СВ 8 н/о н/о +33.4 -14.1 4 +29 +29 жарко 1017.5 984.1
07 13.09 СВ 5 н/о н/о +33.4 -14.1 4 +29 +29 жарко 1017.0 983.7
09 13.09 В 6 н/о н/о +32.4 -14.7 4 +28 +28 жарко 1016.8 983.5
10 13.09 В 4 н/о н/о +28.1 -15.0 5 +24 +24 комфорт 1017.4 984.0
12 13.09 ЮВ 3 н/о н/о +23.7 -16.0 6 +21 +21 комфорт 1018.9 985.5
13 13.09 ЮВ 3 н/о н/о +23.0 -16.5 6 +20 +20 1019.2 985.8 +34.6
15 13.09 ЮВ 4 н/о н/о +20.4 -16.5 7 +20 +20 1019.2 985.8
16 13.09 ЮВ 2 н/о н/о +19.1 -15.9 8 +19 +19 1018.9 985.5
18 13.09 ЮВ 4 н/о н/о +16.6 -15.1 10 +16 +16 1018.1 984.7
19 13.09 ЮВ 4 н/о н/о +15.0 -16.3 10 +14 +14 1018.0 984.6
21 13.09 ЮВ 5 н/о н/о +16.5 -15.2 10 +16 +16 1018.6 985.2
22 13.09 ЮВ 3 н/о н/о +14.9 -15.3 11 +15 +15 1019.1 985.7
00 14.09 В 6 н/о н/о +24.3 -13.7 7 +21 +21 комфорт 1020.4 986.9
01 14.09 СВ 5 н/о н/о +28.4 -10.7 7 +25 +25 комфорт 1020.4 986.9 +12.9
03 14.09 СВ 8 н/о н/о +32.5 -11.9 5 +28 +28 жарко 1019.3 985.9
04 14.09 СВ 9 н/о н/о +32.8 -14.5 4 +28 +28 жарко 1018.0 984.6
06 14.09 В 8 н/о н/о +34.0 -10.9 5 +29 +29 жарко 1016.1 982.8
07 14.09 С 6 н/о н/о +34.1 -13.6 4 +29 +29 жарко 1016.0 982.7
09 14.09 В 6 н/о н/о +32.9 -14.4 4 +28 +28 жарко 1015.9 982.6
10 14.09 СВ 3 н/о н/о +29.8 -13.8 5 +25 +25 комфорт 1016.4 983.1
12 14.09 штиль 0 н/о н/о +25.4 -14.7 6 +22 +22 комфорт 1017.5 984.1
13 14.09 штиль 0 н/о н/о +24.3 -15.5 6 +21 +21 комфорт 1017.6 984.2 +35.2
15 14.09 ЮВ 2 н/о н/о +19.4 -14.2 9 +19 +19 1016.9 983.6
16 14.09 Ю 2 н/о н/о +18.3 -15.1 9 +19 +19 1016.6 983.3
18 14.09 ЮВ 3 н/о н/о +16.9 -13.7 11 +17 +17 1016.2 982.9
19 14.09 ЮВ 3 н/о н/о +15.2 -14.0 12 +15 +15 1016.0 982.7
21 14.09 ЮВ 3 н/о н/о +14.5 -11.8 15 +14 +14 1016.6 983.3
22 14.09 ЮВ 3 н/о н/о +13.2 -11.3 17 +12 +12 1017.0 983.7
00 15.09 ЮВ 4 н/о н/о +24.4 -10.5 9 +22 +22 комфорт 1018.2 984.8
01 15.09 В 3 н/о н/о +29.2 -12.0 6 +25 +25 комфорт 1018.2 984.8 +12.7
03 15.09 В 8 н/о н/о +33.7 -8.8 6 +29 +29 жарко 1016.7 983.4
04 15.09 В 7 н/о н/о +34.9 -8.0 6 +30 +30 жарко 1015.9 982.6
06 15.09 В 6 н/о н/о +35.3 -10.0 5 +31 +31 жарко 1014.0 980.8
07 15.09 СВ 4 н/о н/о +35.2 -10.1 5 +31 +31 жарко 1013.7 980.5
09 15.09 СВ 4 н/о н/о +34.0 -8.6 6 +30 +30 жарко 1013.7 980.5

 

Местоположение метеостанции Телфер (Западная Австралия, Австралия): широта -21.71 долгота 122.21 высота над уровнем моря 292 м.

В архиве по умолчанию представлена погода в Телфере за последнюю неделю. Архивные данные за месяц целиком и за предыдущие месяцы, начиная с января 2011 года, Вы можете получить, выбрав интересующий диапазон дат из раскрывающегося списка и нажав кнопку "Ввод!".


*Определитесь, кто Вы:
робот инопланетянин человек

Внимание! Время в таблицах - всемирное. Для получения местного времени необходимо прибавить поправку, которая равна 8 ч.

Смотрите также архив погоды в соседних городах и на ближайших метеорологических станциях:

Погода в Марбл-баре (Западная Австралия, Австралия) (261 км)
Погода в Мандоре (Западная Австралия, Австралия) (262 км)
Погода в Ньюмане (Западная Австралия, Австралия) (311 км)
Погода в Порт-Хедленде Apardoo (Западная Австралия, Австралия) (401 км)
Погода в Бруме (Западная Австралия, Австралия) (418 км)
Погода в Робак Запад (Западная Австралия, Австралия) (424 км)
Погода в Параберду (Западная Австралия, Австралия) (486 км)
Погода на Базе ВВС Curtin (Западная Австралия, Австралия) (489 км)
Погода в Дерби (Северная территория, Австралия) (507 км)
Погода в Фицрой-Кроссинге (Западная Австралия, Австралия) (526 км)

Пояснения к столбцам:

Ветер - указаны скорость ветра в м/с - средняя за 10 мин, порывы в срок и между сроками (в фигурных скобках) и направление, откуда дует ветер: С - северный, СВ - северо-восточный, В - восточный, ЮВ - юго-восточный, Ю - южный, ЮЗ - юго-западный, З - западный, СЗ - северо-западный.
Видимость - горизонтальная дальность видимости в метрах или километрах. При видимости от 1 до 10 км при отсутствии осадков обычно наблюдается дымка, при ухудшении видимости до 1 км и менее - туман. В сухую погоду видимость может ухудшаться дымом, пылью или мглою.
Явления - указаны атмосферные явления, наблюдавшиеся в срок или в последний час перед сроком; фигурными скобками обозначены явления, наблюдавшиеся между сроками (за 1-3 часа до срока); квадратными скобками обозначены град или гололедные отложения с указанием их диаметра в мм.
Облачность - указаны через наклонную черту общая и нижняя облачность в баллах и высота нижней границы облаков в метрах; квадратными скобками обозначены формы облаков: Ci - перистые, Cs - перисто-слоистые, Cc - перисто-кучевые, Ac - высококучевые, As - высокослоистые, Sc - слоисто-кучевые, Ns - слоисто-дождевые, Cu - кучевые, Cb - кучево-дождевые. Подробнее классификацию облаков см. в Атласе облаков (PDF).
T - Температура воздуха - температура, измеренная на высоте 2 м над землей.
Td - Температура точки росы - температура, при понижении до которой содержащийся в воздухе водяной пар достигнет насыщения.
f - Относительная влажность воздуха - влажноcть воздуха, измеренная на высоте 2 м над землей.
Te - Эффективная температура - температура, которую ощущает одетый по сезону человек в тени. Характеристика душности погоды. При расчете учитывается влияние влажности воздуха и скорости ветра на теплоощущения человека.
Tes - Эффективная температура на солнце - температура, которую ощущает человек, с поправкой на солнечный нагрев. Характеристика знойности погоды. Зависит от высоты солнца над горизонтом, облачности и скорости ветра. Ночью, в пасмурную погоду, а также при ветре 12 м/с и более поправка равна нулю.
P - Атмосферное давление - приведенное к уровню моря атмосферное давление.
Po - Атмосферное давление - измеренное на уровне метеостанции атмосферное давление.
Tmin - Минимальная температура - минимум температуры воздуха на высоте 2 м над землей.
Tmax - Максимальная температура - максимум температуры воздуха на высоте 2 м над землей.
R - Количество осадков - Количество выпавших осадков за период времени, мм. При наведении курсора мыши на число - период времени, за который выпало указанное количество осадков.
R24 - Количество осадков - Количество выпавших осадков за 24 часа, мм.
S - Снежный покров - Высота снежного покрова, см. При наведении курсора мыши на число - состояние снежного покрова и степень покрытия местности в баллах.